Temp
17 17 18 18 18 18 19 19 19 19 18 17 17 17 16 16 15 14 14 14 13 13 12 12 12 12 12 11 11 12 12 12 12 11 11 10 9 8 8 7 7 7 6
17 17 17 17 18 18 18 18 19 19 19 18 18 17 17 17 16 15 15 14 13 13 13 12 12 12 12 11 11 12 12 12 11 11 11 10 9 8 8 8 7 6 6
16 17 17 18 18 18 18 18 18 18 19 18 18 17 16 16 16 16 15 14 14 13 13 13 13 12 12 11 12 12 11 11 11 11 11 10 10 9 8 7 7 6 6
15 15 17 17 17 17 17 17 17 17 17 18 18 18 16 16 16 16 15 14 14 13 13 13 13 12 12 11 12 12 11 11 11 10 10 10 9 9 8 7 7 6 6
17 17 17 17 17 17 17 17 17 17 17 17 17 18 17 17 16 16 16 15 15 14 14 13 12 12 12 11 12 12 11 11 10 10 9 9 9 8 8 7 6 6 5
17 17 17 17 17 17 17 17 16 16 16 17 17 17 17 17 16 16 16 15 15 14 13 13 12 11 11 11 11 11 11 10 10 9 9 8 8 7 6 6 6 5 6
16 17 16 16 16 16 16 16 16 16 16 16 15 16 17 17 17 16 16 16 15 14 13 13 12 11 11 11 10 10 10 10 9 9 8 7 7 6 5 4 4 3 3
15 15 16 16 16 16 16 16 16 16 16 16 15 15 15 16 16 16 16 16 15 15 13 11 11 10 10 10 9 9 9 9 8 8 7 7 6 5 4 3 2 1 1
13 13 15 14 15 15 15 15 15 15 15 15 15 15 15 15 16 16 15 15 14 13 11 11 11 9 8 9 8 9 8 8 7 7 7 6 5 4 3 2 1 -0 -2
11 12 12 12 12 13 14 14 14 15 15 14 15 15 14 14 15 15 15 14 13 11 11 11 9 8 8 7 7 8 7 8 6 6 6 5 4 3 2 1 -0 -1 -2
10 10 11 11 11 13 13 14 14 14 15 14 14 14 14 13 14 14 14 13 12 11 10 10 8 7 6 6 6 7 6 7 5 5 5 4 3 2 1 0 -1 -1 -2
10 9 10 11 11 11 12 13 13 13 14 14 14 13 13 13 13 13 13 12 11 10 10 9 7 6 6 5 6 5 5 6 4 4 4 3 2 1 0 -1 -1 -2 -3
8 7 8 8 9 9 10 11 12 12 12 13 12 12 12 12 13 12 12 10 10 9 8 7 6 5 5 5 5 4 5 4 4 3 3 2 1 0 -1 -1 -2 -3 -4
8 7 7 7 8 8 9 10 11 11 11 12 12 12 11 11 11 10 10 9 9 7 5 4 4 3 3 3 3 4 3 4 3 3 2 1 0 -1 -2 -2 -3 -5 -6
7 7 7 7 6 7 9 9 9 9 9 8 7 10 9 8 9 8 7 7 5 4 3 4 2 1 2 2 3 3 3 3 2 2 1 0 -1 -2 -3 -4 -5 -6 -6
6 6 7 6 7 7 8 7 7 6 5 6 6 6 6 6 7 6 5 4 3 3 2 1 1 2 1 2 2 3 2 2 1 0 0 -1 -2 -3 -4 -5 -6 -7 -7
4 5 5 5 5 5 5 5 4 4 4 5 4 4 5 4 3 3 2 2 1 1 1 0 0 1 1 2 2 0 1 0 -0 -0 -1 -1 -3 -4 -5 -6 -7 -7 -7
4 3 3 4 4 3 4 3 2 1 1 2 1 2 2 2 2 2 1 1 1 1 1 -0 -0 -0 0 -0 0 0 -0 -1 -1 -2 -2 -3 -4 -5 -6 -7 -7 -8 -8
2 3 3 3 2 2 3 2 1 0 0 0 0 0 1 2 2 1 1 1 1 1 0 -0 0 -1 -0 -0 -0 -0 -1 -2 -2 -2 -3 -5 -5 -6 -7 -8 -8 -8 -8
1 2 2 1 1 1 1 1 -1 -1 -0 -0 0 1 2 2 1 1 1 1 0 -0 -1 -1 -0 -0 -1 -1 -2 -1 -2 -3 -3 -4 -5 -5 -6 -8 -8 -8 -8 -9 -9
-0 -0 -0 0 -0 -0 -0 -0 -1 -1 -1 -0 0 1 1 1 0 0 -0 -0 0 -1 -1 -1 -1 -1 -2 -3 -4 -5 -5 -5 -4 -5 -5 -6 -8 -9 -9 -9 -9 -9 -9
-0 -0 1 -0 -0 0 1 0 0 0 0 1 1 1 1 1 0 1 -1 -2 -1 -1 -1 -2 -2 -3 -3 -4 -4 -4 -5 -6 -6 -7 -7 -8 -9 -9 -10 -9 -9 -10 -10
2 1 1 1 1 1 2 2 1 0 1 2 1 1 0 0 0 -0 -0 0 -0 -1 -1 -2 -3 -3 -3 -3 -4 -5 -6 -7 -7 -8 -9 -9 -10 -9 -9 -9 -9 -9 -9
2 2 2 2 2 1 2 2 2 1 1 2 1 0 0 0 -0 -1 -1 -1 -2 -2 -3 -2 -2 -3 -4 -4 -5 -6 -7 -8 -8 -9 -9 -9 -10 -10 -9 -9 -9 -9 -9
2 2 2 2 2 1 2 2 2 1 2 2 1 -0 -0 -1 -1 -1 -2 -2 -2 -2 -2 -3 -3 -4 -6 -6 -6 -8 -9 -9 -9 -9 -9 -9 -9 -9 -9 -8 -8 -9 -9
2 2 3 3 2 2 2 1 1 1 1 0 -0 -1 -1 -1 -2 -2 -2 -2 -2 -2 -3 -4 -5 -6 -7 -8 -9 -9 -10 -10 -10 -10 -10 -10 -9 -9 -9 -9 -9 -9 -8
Height
1458 1461 1462 1465 1467 1470 1472 1474 1476 1480 1484 1488 1490 1492 1494 1496 1498 1502 1506 1509 1512 1514 1516 1518 1520 1522 1524 1525 1524 1525 1525 1526 1525 1525 1524 1524 1524 1524 1524 1524 1524 1523 1523
1452 1455 1458 1460 1462 1463 1465 1467 1469 1472 1475 1479 1483 1485 1487 1489 1492 1495 1501 1504 1508 1510 1512 1514 1517 1519 1521 1521 1522 1523 1523 1523 1524 1524 1522 1522 1523 1522 1521 1521 1521 1520 1520
1443 1446 1451 1453 1455 1456 1459 1461 1463 1464 1467 1470 1474 1480 1483 1485 1487 1489 1494 1497 1502 1505 1507 1510 1513 1515 1517 1518 1520 1521 1521 1520 1521 1521 1521 1519 1518 1519 1518 1518 1518 1518 1517
1437 1439 1442 1446 1448 1450 1453 1455 1458 1458 1460 1463 1465 1468 1470 1474 1478 1483 1486 1490 1496 1500 1503 1506 1508 1510 1513 1514 1517 1518 1519 1518 1518 1518 1518 1517 1517 1516 1516 1516 1515 1514 1514
1434 1435 1437 1440 1442 1444 1446 1447 1450 1451 1452 1454 1456 1460 1462 1466 1472 1476 1480 1483 1487 1492 1496 1500 1502 1505 1507 1511 1512 1514 1515 1515 1516 1515 1515 1515 1514 1513 1513 1511 1512 1511 1510
1434 1434 1435 1436 1437 1438 1440 1441 1442 1444 1446 1446 1449 1452 1455 1459 1463 1468 1472 1476 1481 1485 1489 1493 1496 1499 1502 1505 1508 1509 1511 1512 1512 1512 1511 1511 1511 1509 1508 1507 1505 1504 1503
1432 1431 1432 1432 1433 1434 1435 1436 1437 1438 1440 1440 1442 1446 1446 1452 1455 1460 1464 1468 1473 1477 1481 1485 1489 1493 1497 1500 1502 1505 1507 1507 1507 1508 1508 1507 1506 1505 1504 1503 1501 1498 1495
1433 1432 1430 1428 1429 1430 1431 1432 1433 1434 1435 1435 1435 1439 1443 1445 1450 1455 1459 1462 1465 1469 1474 1479 1485 1488 1491 1496 1499 1501 1503 1503 1503 1503 1504 1503 1502 1500 1499 1498 1497 1493 1490
1432 1428 1424 1424 1423 1423 1425 1426 1427 1428 1429 1429 1430 1431 1433 1437 1444 1448 1453 1456 1460 1464 1469 1475 1479 1484 1487 1491 1494 1496 1498 1499 1501 1499 1499 1499 1498 1496 1495 1494 1492 1490 1486
1431 1428 1426 1424 1422 1421 1420 1421 1421 1422 1422 1421 1423 1423 1426 1431 1436 1441 1445 1449 1454 1459 1464 1469 1472 1478 1482 1487 1488 1490 1494 1494 1497 1495 1494 1494 1494 1493 1491 1490 1488 1486 1483
1427 1424 1422 1422 1421 1420 1418 1416 1416 1415 1414 1413 1414 1416 1419 1423 1428 1434 1438 1443 1448 1453 1458 1463 1467 1472 1477 1482 1486 1486 1491 1489 1491 1490 1490 1490 1489 1489 1487 1485 1483 1481 1478
1421 1418 1416 1415 1415 1414 1412 1410 1409 1408 1407 1407 1408 1409 1413 1418 1422 1427 1432 1438 1443 1448 1453 1457 1462 1468 1474 1476 1481 1482 1486 1484 1486 1485 1486 1485 1484 1484 1482 1480 1478 1475 1473
1415 1411 1411 1410 1412 1409 1407 1405 1403 1403 1403 1402 1402 1405 1409 1414 1415 1423 1428 1433 1438 1443 1449 1454 1459 1465 1470 1474 1476 1480 1480 1480 1481 1481 1481 1480 1479 1478 1476 1474 1471 1469 1466
1410 1408 1407 1409 1407 1406 1403 1401 1399 1398 1397 1397 1399 1404 1406 1408 1409 1419 1425 1429 1434 1439 1445 1451 1458 1462 1467 1474 1477 1476 1476 1476 1477 1476 1475 1475 1474 1473 1471 1468 1465 1463 1459
1408 1406 1404 1402 1404 1403 1401 1398 1397 1394 1394 1394 1398 1397 1400 1404 1407 1416 1422 1425 1431 1438 1445 1452 1455 1463 1465 1469 1475 1475 1474 1473 1473 1472 1470 1470 1468 1467 1464 1462 1459 1457 1454
1406 1403 1401 1400 1399 1399 1397 1396 1394 1394 1395 1395 1394 1397 1400 1403 1405 1413 1418 1423 1430 1437 1444 1452 1462 1465 1467 1469 1470 1471 1472 1469 1470 1469 1467 1465 1463 1461 1459 1457 1455 1454 1450
1404 1401 1399 1398 1397 1396 1394 1393 1393 1394 1392 1390 1392 1395 1398 1402 1407 1414 1421 1429 1434 1440 1450 1455 1455 1467 1467 1467 1466 1469 1468 1466 1466 1464 1462 1459 1457 1455 1453 1451 1449 1447 1445
1402 1400 1398 1397 1396 1394 1393 1390 1391 1392 1394 1392 1395 1395 1399 1405 1414 1420 1428 1430 1441 1443 1448 1451 1454 1461 1463 1463 1464 1464 1463 1462 1462 1459 1455 1453 1452 1449 1447 1445 1443 1441 1438
1405 1403 1401 1399 1397 1397 1395 1394 1394 1395 1393 1395 1404 1408 1410 1414 1420 1425 1429 1433 1441 1444 1448 1456 1456 1457 1461 1462 1462 1461 1459 1458 1457 1454 1451 1450 1447 1445 1442 1440 1438 1434 1431
1409 1407 1405 1404 1402 1402 1401 1399 1400 1402 1405 1408 1411 1413 1414 1420 1423 1423 1433 1439 1445 1446 1451 1455 1456 1457 1459 1459 1458 1456 1455 1454 1451 1449 1448 1445 1442 1439 1438 1436 1432 1428 1425
1411 1410 1408 1408 1407 1407 1406 1406 1406 1407 1408 1413 1414 1417 1421 1426 1431 1435 1439 1445 1446 1448 1452 1454 1456 1457 1458 1457 1455 1453 1451 1448 1446 1446 1444 1441 1437 1436 1434 1431 1427 1423 1421
1414 1413 1413 1412 1412 1412 1412 1412 1413 1415 1418 1421 1423 1425 1428 1432 1436 1439 1443 1446 1446 1449 1451 1453 1454 1455 1455 1454 1451 1449 1448 1446 1444 1442 1439 1435 1433 1431 1427 1424 1421 1419 1415
1419 1418 1417 1418 1418 1419 1419 1419 1421 1423 1425 1428 1430 1432 1435 1438 1440 1443 1446 1446 1448 1450 1452 1453 1454 1453 1451 1450 1448 1446 1445 1443 1440 1437 1434 1431 1428 1424 1422 1419 1416 1412 1409
1422 1422 1423 1423 1423 1424 1426 1427 1428 1430 1431 1431 1434 1437 1440 1442 1444 1446 1448 1449 1450 1451 1452 1452 1452 1450 1448 1447 1444 1442 1440 1438 1436 1432 1429 1426 1423 1420 1418 1415 1412 1409 1405
1423 1425 1426 1426 1427 1429 1429 1431 1433 1435 1436 1437 1439 1442 1444 1445 1447 1448 1449 1450 1451 1451 1451 1450 1448 1446 1444 1442 1441 1439 1437 1435 1432 1428 1425 1422 1419 1416 1413 1410 1407 1405 1401
1426 1427 1428 1430 1431 1433 1435 1437 1438 1440 1440 1441 1443 1445 1446 1447 1448 1449 1450 1450 1450 1449 1448 1446 1444 1442 1441 1440 1438 1436 1434 1430 1427 1423 1421 1418 1415 1412 1409 1406 1403 1401 1397
Wind_Speed
34 26 23 23 23 35 39 36 35 32 42 43 38 35 37 36 33 32 32 31 32 27 24 24 24 22 18 16 16 14 12 8 6 4 4 5 4 5 6 7 8 9 11
40 34 30 29 27 24 25 39 38 34 39 45 44 43 37 40 36 39 34 33 33 32 30 26 26 24 20 18 17 15 13 9 6 6 6 6 6 7 8 8 11 12 13
44 42 38 37 35 35 30 28 29 34 37 39 45 43 39 38 38 39 36 37 35 34 32 29 27 26 22 17 18 16 14 11 8 6 5 4 5 6 10 12 12 13 14
30 32 38 37 33 33 33 35 33 28 28 32 43 47 46 43 42 39 41 39 37 35 33 32 32 28 24 20 19 18 15 12 9 6 5 4 5 3 4 10 13 15 15
19 20 24 26 25 27 27 28 31 33 32 32 36 44 48 46 44 41 43 42 41 38 35 36 34 31 26 24 22 21 17 13 9 7 6 6 6 7 8 10 10 15 18
12 19 19 22 22 22 24 25 26 31 30 31 34 38 48 49 48 46 44 46 43 42 39 37 36 32 29 27 24 21 18 14 11 9 8 8 8 9 10 13 18 21 23
12 14 16 16 16 16 17 18 18 20 27 28 31 36 43 47 51 47 44 45 46 45 43 40 39 34 30 29 27 23 18 14 11 10 9 9 10 11 13 15 18 22 27
15 20 19 21 22 22 23 23 23 24 25 29 29 32 39 43 46 44 41 41 45 46 46 41 38 35 32 30 26 22 18 15 12 10 10 11 12 13 14 16 17 23 25
27 27 23 24 23 22 20 18 19 20 23 32 32 32 37 44 45 44 41 39 42 44 43 37 38 36 33 31 28 22 18 15 13 11 11 12 13 14 16 17 18 20 20
33 33 25 14 13 13 14 16 17 21 24 26 33 31 36 38 44 43 40 38 40 40 40 40 40 37 35 30 25 21 19 15 13 11 12 13 15 16 17 17 19 20 21
32 34 33 26 22 16 15 16 19 21 23 25 28 30 34 39 40 40 37 37 36 40 40 40 40 37 34 30 26 20 17 14 13 12 13 15 16 17 18 19 20 21 23
35 33 31 33 26 20 16 17 19 21 23 27 27 32 33 36 38 36 35 31 34 39 39 42 39 35 33 29 26 19 17 12 12 13 15 16 18 19 19 20 22 23 24
29 26 25 14 17 17 18 21 22 25 25 29 27 33 31 33 33 33 31 33 34 37 39 40 37 35 28 26 22 19 14 12 12 14 16 18 19 19 20 22 23 24 24
21 19 20 29 27 23 20 21 25 28 25 28 30 31 31 32 31 32 33 32 33 36 37 36 32 28 22 21 16 14 11 11 14 15 17 18 19 20 21 22 23 23 23
18 14 16 18 28 29 23 22 24 24 21 23 30 32 32 31 31 33 33 31 31 31 34 31 26 24 22 14 14 11 11 12 13 15 17 17 19 20 20 21 20 20 23
19 20 17 16 15 19 17 16 13 13 18 26 27 28 30 32 32 34 33 31 31 31 26 23 20 16 14 13 12 12 12 12 14 14 16 17 19 20 20 17 17 16 20
17 17 16 11 9 9 9 9 8 14 22 26 29 32 34 33 32 29 25 26 27 26 22 17 15 15 14 11 11 10 12 12 13 15 17 18 20 20 20 20 19 18 21
12 5 3 4 5 5 7 9 10 16 21 23 27 29 28 29 25 24 26 23 22 22 21 22 18 13 12 10 9 9 10 12 14 16 18 19 19 19 18 18 18 20 23
7 3 0 1 2 4 7 7 10 13 15 18 18 22 22 21 22 22 24 26 23 18 15 14 10 5 7 9 10 9 10 13 15 16 16 16 18 17 16 17 20 24 28
4 3 3 3 3 7 8 9 15 17 22 25 26 24 24 26 26 24 21 18 16 14 9 6 5 7 7 8 10 12 14 16 17 16 17 19 19 17 14 18 24 27 28
4 5 5 6 8 8 11 15 17 20 21 22 23 24 25 25 23 20 18 17 13 10 9 7 6 6 6 7 9 11 16 19 20 20 21 20 17 15 18 18 22 22 20
8 8 10 14 12 11 13 18 19 20 21 21 22 21 20 19 17 15 15 11 8 7 5 4 4 5 7 10 12 16 17 17 21 21 20 16 16 18 19 18 17 18 20
12 12 13 13 13 15 19 20 21 20 21 20 21 20 19 16 13 10 8 6 5 4 3 4 6 8 11 14 16 17 16 17 17 17 15 17 20 22 20 19 18 18 18
12 12 12 13 13 14 14 16 17 18 19 17 16 14 12 11 10 8 7 5 4 3 3 6 9 11 14 14 14 14 15 16 15 15 18 21 22 19 18 16 14 14 16
13 14 14 14 14 15 18 16 15 14 14 14 13 12 10 9 8 6 4 2 3 4 6 8 10 10 10 12 12 13 16 16 16 18 21 21 19 17 15 13 13 14 17
13 14 13 14 16 15 14 13 12 10 10 12 12 11 8 7 5 3 2 2 5 8 9 9 10 11 13 11 12 14 13 16 14 18 19 17 15 15 16 15 16 16 18
Wind_Direction
260 259 253 252 248 241 241 249 251 242 234 228 228 228 228 227 221 219 222 225 223 230 225 228 236 243 237 239 230 223 219 216 212 212 204 204 200 209 237 253 264 281 293
260 259 257 254 253 252 247 241 245 249 241 235 234 230 227 227 230 218 222 224 224 229 232 228 239 238 231 233 228 222 217 213 206 217 200 198 215 218 236 244 253 266 274
260 256 253 252 253 255 254 252 250 250 244 237 235 230 232 233 225 220 220 221 226 230 233 238 238 236 230 234 230 225 220 220 214 210 214 202 206 219 238 239 251 257 267
258 256 253 254 255 256 259 257 253 254 252 240 235 234 225 224 227 227 220 220 224 230 235 236 235 229 227 222 229 228 226 226 231 229 233 241 252 251 244 242 250 258 266
259 255 256 256 255 254 255 255 255 253 250 245 237 234 234 230 229 228 226 225 224 224 232 235 228 224 224 221 221 227 226 228 234 244 255 264 271 269 261 271 254 262 268
275 261 260 258 258 257 254 254 259 245 249 251 245 238 236 233 229 228 226 225 225 226 225 229 225 222 221 223 217 219 225 230 240 253 266 275 278 279 276 278 287 289 294
245 232 230 237 238 237 236 239 243 242 244 257 254 244 238 238 238 229 227 227 225 224 223 224 224 218 219 217 217 219 223 231 241 258 272 283 288 288 286 284 286 291 299
317 285 265 260 250 248 248 250 254 259 258 252 257 247 242 237 234 231 233 234 232 230 223 219 218 215 216 215 214 218 222 233 243 259 277 287 292 293 291 289 290 295 296
354 337 298 256 235 235 237 247 256 261 263 259 255 256 244 235 235 235 234 235 234 228 221 219 219 213 213 212 213 214 224 237 246 262 277 286 291 291 290 288 290 292 295
325 319 325 265 245 240 235 240 256 272 271 260 256 254 252 239 231 231 233 236 231 229 220 220 216 213 210 207 207 214 227 236 251 268 279 287 291 291 289 288 291 291 289
308 308 297 298 275 264 269 263 265 269 265 261 251 247 247 239 230 229 234 234 230 222 221 219 212 209 207 212 212 214 228 236 253 273 286 291 291 289 287 289 290 291 293
298 294 290 270 287 265 272 280 280 290 273 262 251 241 240 237 232 227 229 222 228 222 222 214 209 207 207 206 219 217 228 243 262 282 288 290 288 287 289 292 294 295 296
299 289 263 305 310 295 293 291 296 297 281 263 252 241 231 227 224 223 217 215 222 221 215 208 207 203 202 206 207 214 232 248 271 285 289 290 287 289 290 292 294 295 298
324 278 265 260 288 313 309 302 303 298 280 261 245 232 225 216 207 209 208 212 217 215 205 199 196 199 194 202 212 222 238 265 281 286 291 290 289 289 290 292 295 298 298
314 306 301 281 249 290 298 299 300 299 262 234 209 211 204 199 196 198 201 204 204 195 191 196 191 188 192 199 225 243 259 272 283 287 286 287 287 289 291 294 295 294 297
305 299 291 297 287 281 277 278 284 251 220 203 197 193 191 188 188 192 194 194 190 185 180 171 182 187 190 208 235 256 269 286 285 282 286 289 289 288 288 289 291 294 300
321 308 298 290 272 258 249 265 234 213 201 194 181 182 182 180 179 182 174 169 162 159 164 166 178 197 208 227 253 262 278 284 288 291 293 294 293 293 294 295 297 296 296
351 0 284 261 242 230 232 222 187 167 166 167 171 172 171 165 159 157 151 150 156 154 161 181 187 212 237 266 270 273 285 291 295 297 300 300 300 300 301 306 309 299 296
13 2 3 199 195 151 197 179 188 166 155 151 150 142 143 142 148 152 150 157 158 164 175 198 204 220 243 263 279 288 293 298 302 304 305 305 307 308 316 311 299 296 296
44 68 79 97 107 111 136 143 138 146 139 143 151 150 144 135 136 145 146 150 163 162 160 182 211 234 253 275 293 301 307 307 309 310 309 312 313 316 316 304 301 298 301
58 101 115 112 111 123 136 131 132 132 135 137 135 132 131 134 137 144 148 152 143 153 185 202 220 242 255 273 298 310 311 312 312 313 311 312 314 317 303 299 293 299 312
86 105 112 112 112 115 122 122 127 129 129 130 129 127 127 130 133 134 139 153 152 166 184 208 244 262 278 292 298 299 300 298 301 306 311 318 320 304 306 307 306 306 300
108 121 124 115 109 119 121 118 120 125 127 128 124 122 122 125 127 133 145 148 162 184 216 236 250 276 293 294 294 295 296 301 306 315 316 302 305 312 312 310 309 307 309
135 129 129 121 123 129 120 116 123 125 122 116 117 123 131 133 135 145 154 158 163 191 240 278 285 289 293 294 298 303 307 315 321 319 309 311 310 308 310 310 310 310 315
149 141 143 141 131 126 122 115 118 124 135 135 135 137 138 141 147 151 148 172 231 262 281 289 295 298 305 312 314 318 321 329 320 293 300 306 311 315 318 321 321 322 323
150 147 144 138 131 133 133 138 142 145 136 137 142 145 140 134 142 160 193 256 279 289 300 312 317 318 322 325 315 318 322 295 301 300 309 313 316 320 325 327 327 328 328